^^
Station Historical Data
Daily Summary for January 28, 2018 Units:  Metric    English   Both
« Previous Day
Next Day »
Daily Weekly Monthly Yearly Custom
  High: Low: Average:
Temperature: -17.8 °C -18.8 °C -17.8 °C
Dew Point: -17.8 °C -19.2 °C -18.3 °C
Humidity: Humidity% 93% 94%
Wind Speed: 0km/h 0km/h 2.9km/h
Wind Gust: 0km/h - -
Wind- - SE
Pressure: 0 hPa 33958.2 hPa -
Precipitation: 38.1 mm    
Historical Graphs
 
 
Tabular Data for January 28, 2018
Time Temperature Dew Point Pressure Wind Wind Speed Wind Gust Humidity Rainfall Rate (Hourly) solar Conditions
-17.8 °C -17.8 °C 0 hPa Calm     Humidity% 0 mm SoftwareType W/m2 Conditions
00:03 -17.9 °C -18.3 °C 34405.1 hPa West 3.1 km/h 9 km/h 94% 0 mm WeatherDisplay:10.37 W/m2 RA
00:08 -17.9 °C -18.3 °C 34405.1 hPa Calm     94% 0 mm WeatherDisplay:10.37 W/m2 RA
00:13 -17.9 °C -18.3 °C 34405.1 hPa West 1 km/h   94% 0 mm WeatherDisplay:10.37 W/m2 FEW
00:18 -17.9 °C -18.3 °C 34405.1 hPa Calm     94% 0 mm WeatherDisplay:10.37 W/m2 FEW
00:23 -17.9 °C -18.3 °C 34405.1 hPa WSW 1.3 km/h 5.1 km/h 94% 0 mm WeatherDisplay:10.37 W/m2 FEW
00:28 -17.9 °C -18.4 °C 34405.1 hPa WSW 0.8 km/h 6 km/h 94% 0 mm WeatherDisplay:10.37 W/m2 FEW
00:33 -17.9 °C -18.4 °C 34405.1 hPa SW 1.6 km/h 7.7 km/h 94% 0 mm WeatherDisplay:10.37 W/m2 FEW
00:38 -17.9 °C -18.4 °C 34405.1 hPa NW 1.6 km/h 9 km/h 94% 0 mm WeatherDisplay:10.37 W/m2 FEW
00:43 -17.9 °C -18.4 °C 34405.1 hPa Calm     94% 0 mm WeatherDisplay:10.37 W/m2 FEW
00:48 -17.9 °C -18.4 °C 34418.7 hPa Calm   9 km/h 94% 0 mm WeatherDisplay:10.37 W/m2 FEW
00:53 -17.9 °C -18.4 °C 34418.7 hPa Calm     94% 0 mm WeatherDisplay:10.37 W/m2 FEW
00:58 -18 °C -18.4 °C 34418.7 hPa Calm   9 km/h 94% 0 mm WeatherDisplay:10.37 W/m2 FEW
01:03 -18 °C -18.6 °C 34405.1 hPa WNW 5 km/h 5 km/h 93% 0 mm WeatherDisplay:10.37 W/m2 FEW
01:08 -18 °C -18.6 °C 34405.1 hPa West 0.3 km/h 9 km/h 93% 0 mm WeatherDisplay:10.37 W/m2 FEW
01:13 -18 °C -18.6 °C 34405.1 hPa WSW 4.7 km/h 6 km/h 93% 0 mm WeatherDisplay:10.37 W/m2 FEW
01:18 -18 °C -18.6 °C 34405.1 hPa NNW 1.8 km/h 9 km/h 93% 0 mm WeatherDisplay:10.37 W/m2 FEW
01:23 -18 °C -18.6 °C 34405.1 hPa Calm     93% 0 mm WeatherDisplay:10.37 W/m2 FEW
01:28 -18 °C -18.6 °C 34418.7 hPa Calm     93% 0 mm WeatherDisplay:10.37 W/m2 FEW
01:33 -18 °C -18.6 °C 34418.7 hPa Calm     93% 0 mm WeatherDisplay:10.37 W/m2 FEW
01:38 -18 °C -18.6 °C 34418.7 hPa Calm     93% 0 mm WeatherDisplay:10.37 W/m2 FEW
01:43 -18 °C -18.6 °C 34418.7 hPa Calm     93% 0 mm WeatherDisplay:10.37 W/m2 FEW
01:48 -18 °C -18.4 °C 34405.1 hPa Calm     94% 0 mm WeatherDisplay:10.37 W/m2 FEW
01:53 -18 °C -18.6 °C 34405.1 hPa Calm     93% 0 mm WeatherDisplay:10.37 W/m2 FEW
01:58 -18 °C -18.6 °C 34405.1 hPa Calm     93% 0 mm WeatherDisplay:10.37 W/m2 FEW
02:03 -18 °C -18.6 °C 34405.1 hPa Calm     93% 0 mm WeatherDisplay:10.37 W/m2 FEW
02:08 -18 °C -18.4 °C 34405.1 hPa Calm     94% 0 mm WeatherDisplay:10.37 W/m2 FEW
02:13 -18 °C -18.4 °C 34405.1 hPa Calm     94% 0 mm WeatherDisplay:10.37 W/m2 FEW
02:18 -17.9 °C -18.4 °C 34405.1 hPa Calm     94% 0 mm WeatherDisplay:10.37 W/m2 FEW
02:23 -17.9 °C -18.4 °C 34405.1 hPa Calm     94% 0 mm WeatherDisplay:10.37 W/m2 FEW
02:28 -17.9 °C -18.4 °C 34405.1 hPa South 2.6 km/h 7.7 km/h 94% 0 mm WeatherDisplay:10.37 W/m2 FEW
02:33 -17.9 °C -18.4 °C 34405.1 hPa Calm   2.6 km/h 94% 0 mm WeatherDisplay:10.37 W/m2 FEW
02:38 -18 °C -18.4 °C 34405.1 hPa Calm     94% 0 mm WeatherDisplay:10.37 W/m2 FEW
02:43 -18 °C -18.5 °C 34405.1 hPa Calm     94% 0 mm WeatherDisplay:10.37 W/m2 FEW
02:48 -18 °C -18.5 °C 34395 hPa Calm     94% 0 mm WeatherDisplay:10.37 W/m2 FEW
02:53 -18 °C -18.5 °C 34395 hPa Calm   2.6 km/h 94% 0 mm WeatherDisplay:10.37 W/m2 FEW
02:58 -18 °C -18.5 °C 34405.1 hPa Calm     94% 0 mm WeatherDisplay:10.37 W/m2 FEW
03:03 -18 °C -18.5 °C 34395 hPa Calm     94% 0 mm WeatherDisplay:10.37 W/m2 FEW
03:08 -18 °C -18.5 °C 34395 hPa Calm     94% 0 mm WeatherDisplay:10.37 W/m2 FEW
03:13 -18 °C -18.4 °C 34395 hPa Calm     94% 0 mm WeatherDisplay:10.37 W/m2 FEW
03:18 -18 °C -18.4 °C 34395 hPa WSW 3.1 km/h 9 km/h 94% 0 mm WeatherDisplay:10.37 W/m2 FEW
03:23 -18 °C -18.5 °C 34395 hPa Calm     94% 0 mm WeatherDisplay:10.37 W/m2 FEW
03:28 -18 °C -18.5 °C 34395 hPa Calm     94% 0 mm WeatherDisplay:10.37 W/m2 FEW
03:33 -18.1 °C -18.5 °C 34395 hPa Calm     94% 0 mm WeatherDisplay:10.37 W/m2 FEW
03:38 -18.1 °C -18.6 °C 34384.8 hPa Calm     94% 0 mm WeatherDisplay:10.37 W/m2 FEW
03:43 -18.1 °C -18.6 °C 34384.8 hPa Calm     94% 0 mm WeatherDisplay:10.37 W/m2 FEW
03:48 -18.1 °C -18.6 °C 34384.8 hPa Calm     94% 0 mm WeatherDisplay:10.37 W/m2 FEW
03:53 -18.1 °C -18.6 °C 34384.8 hPa Calm     94% 0 mm WeatherDisplay:10.37 W/m2 FEW
03:58 -18.1 °C -18.6 °C 34384.8 hPa Calm     94% 0 mm WeatherDisplay:10.37 W/m2 FEW
04:03 -18.1 °C -18.6 °C 34384.8 hPa Calm     94% 0 mm WeatherDisplay:10.37 W/m2 FEW
04:08 -18.2 °C -18.6 °C 34371.3 hPa Calm     94% 0 mm WeatherDisplay:10.37 W/m2 FEW
04:13 -18.2 °C -18.6 °C 34371.3 hPa Calm     94% 0 mm WeatherDisplay:10.37 W/m2 FEW
04:18 -18.2 °C -18.6 °C 34371.3 hPa WSW 1.8 km/h 6 km/h 94% 0 mm WeatherDisplay:10.37 W/m2 FEW
04:23 -18.2 °C -18.7 °C 34371.3 hPa Calm     94% 0 mm WeatherDisplay:10.37 W/m2 FEW
04:28 -18.2 °C -18.7 °C 34371.3 hPa Calm     94% 0 mm WeatherDisplay:10.37 W/m2 FEW
04:33 -18.2 °C -18.7 °C 34371.3 hPa Calm     94% 0 mm WeatherDisplay:10.37 W/m2 FEW
04:38 -18.2 °C -18.7 °C 34371.3 hPa Calm     94% 0 mm WeatherDisplay:10.37 W/m2 FEW
04:43 -18.2 °C -18.7 °C 34371.3 hPa Calm     94% 0 mm WeatherDisplay:10.37 W/m2 FEW
04:48 -18.2 °C -18.7 °C 34371.3 hPa Calm     94% 0 mm WeatherDisplay:10.37 W/m2 FEW
04:53 -18.2 °C -18.7 °C 34361.1 hPa Calm     94% 0 mm WeatherDisplay:10.37 W/m2 FEW
04:58 -18.2 °C -18.7 °C 34361.1 hPa Calm     94% 0 mm WeatherDisplay:10.37 W/m2 FEW
05:03 -18.2 °C -18.7 °C 34361.1 hPa Calm     94% 0 mm WeatherDisplay:10.37 W/m2 FEW
05:08 -18.2 °C -18.7 °C 34361.1 hPa Calm     94% 0 mm WeatherDisplay:10.37 W/m2 FEW
05:13 -18.3 °C -18.7 °C 34347.6 hPa Calm     94% 0 mm WeatherDisplay:10.37 W/m2 FEW
05:18 -18.3 °C -18.7 °C 34347.6 hPa Calm     94% 0 mm WeatherDisplay:10.37 W/m2 FEW
05:23 -18.3 °C -18.7 °C 34347.6 hPa Calm     94% 0 mm WeatherDisplay:10.37 W/m2 FEW
05:28 -18.3 °C -18.7 °C 34347.6 hPa Calm     94% 0 mm WeatherDisplay:10.37 W/m2 FEW
05:33 -18.3 °C -18.8 °C 34347.6 hPa Calm     94% 0 mm WeatherDisplay:10.37 W/m2 FEW
05:38 -18.3 °C -18.8 °C 34337.4 hPa Calm     94% 0 mm WeatherDisplay:10.37 W/m2 FEW
05:43 -18.3 °C -18.8 °C 34337.4 hPa Calm     94% 0 mm WeatherDisplay:10.37 W/m2 FEW
05:48 -18.4 °C -18.8 °C 34337.4 hPa Calm     94% 0 mm WeatherDisplay:10.37 W/m2 FEW
05:53 -18.4 °C -18.8 °C 34337.4 hPa Calm     94% 0 mm WeatherDisplay:10.37 W/m2 FEW
05:58 -18.4 °C -18.8 °C 34337.4 hPa Calm     94% 0 mm WeatherDisplay:10.37 W/m2 FEW
06:03 -18.4 °C -18.8 °C 34327.3 hPa Calm     94% 0 mm WeatherDisplay:10.37 W/m2 FEW
06:08 -18.4 °C -18.8 °C 34327.3 hPa Calm     94% 0 mm WeatherDisplay:10.37 W/m2 FEW
06:13 -18.4 °C -18.8 °C 34327.3 hPa Calm     94% 0 mm WeatherDisplay:10.37 W/m2 FEW
06:18 -18.4 °C -18.8 °C 34313.7 hPa Calm     94% 0 mm WeatherDisplay:10.37 W/m2 FEW
06:23 -18.4 °C -18.9 °C 34313.7 hPa Calm     94% 0 mm WeatherDisplay:10.37 W/m2 FEW
06:28 -18.4 °C -18.9 °C 34313.7 hPa Calm     94% 0 mm WeatherDisplay:10.37 W/m2 FEW
06:33 -18.4 °C -18.9 °C 34313.7 hPa Calm     94% 0 mm WeatherDisplay:10.37 W/m2 FEW
06:38 -18.4 °C -18.9 °C 34313.7 hPa Calm     94% 0 mm WeatherDisplay:10.37 W/m2 FEW
06:43 -18.4 °C -18.9 °C 34313.7 hPa Calm     94% 0 mm WeatherDisplay:10.37 W/m2 FEW
06:48 -18.4 °C -18.9 °C 34303.6 hPa Calm     94% 0 mm WeatherDisplay:10.37 W/m2 FEW
06:53 -18.4 °C -18.9 °C 34303.6 hPa Calm     94% 0 mm WeatherDisplay:10.37 W/m2 FEW
06:58 -18.5 °C -19 °C 34303.6 hPa Calm     94% 0 mm WeatherDisplay:10.37 W/m2 FEW
07:03 -18.6 °C -19 °C 34303.6 hPa Calm     94% 0 mm WeatherDisplay:10.37 W/m2 FEW
07:08 -18.6 °C -19.1 °C 34303.6 hPa Calm     94% 0 mm WeatherDisplay:10.37 W/m2 FEW
07:13 -18.6 °C -19.1 °C 34303.6 hPa Calm     94% 0 mm WeatherDisplay:10.37 W/m2 FEW
07:18 -18.7 °C -19.1 °C 34303.6 hPa Calm     94% 0 mm WeatherDisplay:10.37 W/m2 FEW
07:23 -18.7 °C -19.2 °C 34303.6 hPa Calm     94% 0 mm WeatherDisplay:10.37 W/m2 FEW
07:28 -18.7 °C -19.2 °C 34293.4 hPa Calm     94% 0 mm WeatherDisplay:10.37 W/m2 FEW
07:33 -18.8 °C -19.2 °C 34293.4 hPa Calm     94% 0 mm WeatherDisplay:10.37 W/m2 FEW
07:38 -18.8 °C -19.2 °C 34293.4 hPa Calm     94% 0 mm WeatherDisplay:10.37 W/m2 FEW
07:43 -18.7 °C -19.2 °C 34293.4 hPa Calm     94% 0 mm WeatherDisplay:10.37 W/m2 FEW
07:48 -18.7 °C -19.2 °C 34293.4 hPa Calm     94% 0 mm WeatherDisplay:10.37 W/m2 FEW
07:53 -18.7 °C -19.1 °C 34279.9 hPa ENE 4.7 km/h 9 km/h 94% 0 mm WeatherDisplay:10.37 W/m2 FEW
07:58 -18.7 °C -19.1 °C 34279.9 hPa ENE 1.3 km/h 6 km/h 94% 0 mm WeatherDisplay:10.37 W/m2 FEW
08:03 -18.6 °C -19.1 °C 34279.9 hPa Calm     94% 0 mm WeatherDisplay:10.37 W/m2 FEW
08:08 -18.6 °C -19.1 °C 34269.7 hPa East 1.3 km/h 6 km/h 94% 0 mm WeatherDisplay:10.37 W/m2 FEW
08:13 -18.6 °C -19.1 °C 34269.7 hPa Calm     94% 0 mm WeatherDisplay:10.37 W/m2 FEW
08:18 -18.6 °C -19.1 °C 34269.7 hPa Calm     94% 0 mm WeatherDisplay:10.37 W/m2 FEW
08:23 -18.6 °C -19 °C 34269.7 hPa Calm     94% 0 mm WeatherDisplay:10.37 W/m2 FEW
08:28 -18.5 °C -19 °C 34269.7 hPa East 1.3 km/h 6 km/h 94% 0 mm WeatherDisplay:10.37 W/m2 FEW
08:33 -18.5 °C -18.9 °C 34269.7 hPa Calm     94% 0 mm WeatherDisplay:10.37 W/m2 FEW
08:38 -18.4 °C -18.9 °C 34256.2 hPa Calm     94% 0 mm WeatherDisplay:10.37 W/m2 FEW
08:43 -18.4 °C -18.9 °C 34256.2 hPa Calm     94% 0 mm WeatherDisplay:10.37 W/m2 FEW
08:48 -18.4 °C -18.8 °C 34256.2 hPa East 0.8 km/h 5.1 km/h 94% 0 mm WeatherDisplay:10.37 W/m2 FEW
08:53 -18.4 °C -18.8 °C 34256.2 hPa East 0.8 km/h 6 km/h 94% 0 mm WeatherDisplay:10.37 W/m2 FEW
08:58 -18.3 °C -18.8 °C 34256.2 hPa Calm     94% 0 mm WeatherDisplay:10.37 W/m2 FEW
09:03 -18.3 °C -18.8 °C 34256.2 hPa Calm     94% 0 mm WeatherDisplay:10.37 W/m2 FEW
09:08 -18.3 °C -18.7 °C 34256.2 hPa Calm     94% 0 mm WeatherDisplay:10.37 W/m2 FEW
09:13 -18.2 °C -18.7 °C 34256.2 hPa Calm     94% 0 mm WeatherDisplay:10.37 W/m2 FEW
09:18 -18.2 °C -18.7 °C 34256.2 hPa Calm     94% 0 mm WeatherDisplay:10.37 W/m2 FEW
09:23 -18.2 °C -18.6 °C 34256.2 hPa Calm     94% 0 mm WeatherDisplay:10.37 W/m2 FEW
09:28 -18.1 °C -18.6 °C 34246 hPa Calm     94% 0 mm WeatherDisplay:10.37 W/m2 FEW
09:33 -18.1 °C -18.6 °C 34246 hPa Calm     94% 0 mm WeatherDisplay:10.37 W/m2 FEW
09:37 -18.1 °C -18.5 °C 34246 hPa Calm     94% 0 mm WeatherDisplay:10.37 W/m2 FEW
09:42 -18 °C -18.5 °C 34246 hPa Calm     94% 0 mm WeatherDisplay:10.37 W/m2 FEW
09:47 -18 °C -18.4 °C 34246 hPa Calm     94% 0 mm WeatherDisplay:10.37 W/m2 FEW
09:52 -17.9 °C -18.4 °C 34246 hPa East 2.6 km/h 7.7 km/h 94% 0 mm WeatherDisplay:10.37 W/m2 FEW
09:57 -17.9 °C -18.3 °C 34246 hPa SSE 2.6 km/h 6 km/h 94% 0 mm WeatherDisplay:10.37 W/m2 FEW
10:02 -17.8 °C -18.3 °C 34246 hPa Calm     94% 0 mm WeatherDisplay:10.37 W/m2 FEW
10:07 -17.8 °C -18.2 °C 34246 hPa SE 5.1 km/h 6 km/h 94% 0 mm WeatherDisplay:10.37 W/m2 FEW
10:12 -17.7 °C -18.2 °C 34246 hPa East 5.1 km/h 5.1 km/h 94% 0 mm WeatherDisplay:10.37 W/m2 FEW
10:17 -17.7 °C -18.2 °C 34235.8 hPa South 3.7 km/h 5.1 km/h 94% 0 mm WeatherDisplay:10.37 W/m2 FEW
10:22 -17.7 °C -18.2 °C 34235.8 hPa SSE 1.3 km/h 9 km/h 94% 0 mm WeatherDisplay:10.37 W/m2 FEW
10:27 -17.7 °C -18.2 °C 34235.8 hPa SE 1.8 km/h 11.9 km/h 94% 0 mm WeatherDisplay:10.37 W/m2 FEW
10:33 -17.7 °C -18.2 °C 34235.8 hPa Calm     94% 0 mm WeatherDisplay:10.37 W/m2 FEW
10:38 -17.7 °C -18.1 °C 34235.8 hPa Calm     94% 0 mm WeatherDisplay:10.37 W/m2 FEW
10:44 -17.6 °C -18.1 °C 34235.8 hPa Calm     94% 0 mm WeatherDisplay:10.37 W/m2 FEW
10:49 -17.6 °C -18.1 °C 34222.3 hPa South 3.7 km/h 11.9 km/h 94% 0 mm WeatherDisplay:10.37 W/m2 FEW
10:54 -17.6 °C -18.1 °C 34222.3 hPa Calm     94% 0 mm WeatherDisplay:10.37 W/m2 FEW
10:59 -17.6 °C -18.1 °C 34222.3 hPa SSE 0.8 km/h 10.3 km/h 94% 0 mm WeatherDisplay:10.37 W/m2 FEW
11:04 -17.6 °C -18.1 °C 34222.3 hPa ESE 3.7 km/h 9 km/h 94% 0 mm WeatherDisplay:10.37 W/m2 FEW
11:09 -17.6 °C -18.1 °C 34212.1 hPa SE 2.1 km/h 2.6 km/h 94% 0 mm WeatherDisplay:10.37 W/m2 FEW
11:14 -17.6 °C -18.1 °C 34212.1 hPa ESE 7.7 km/h 23.8 km/h 94% 0 mm WeatherDisplay:10.37 W/m2 FEW
11:19 -17.6 °C -18 °C 34212.1 hPa SSE 6.9 km/h 9 km/h 94% 0 mm WeatherDisplay:10.37 W/m2 FEW
11:24 -17.6 °C -18 °C 34212.1 hPa Calm     94% 0 mm WeatherDisplay:10.37 W/m2 FEW
11:29 -17.6 °C -18 °C 34212.1 hPa SSE 2.6 km/h 9 km/h 94% 0 mm WeatherDisplay:10.37 W/m2 FEW
11:34 -17.6 °C -18 °C 34212.1 hPa South 0.3 km/h 9 km/h 94% 0 mm WeatherDisplay:10.37 W/m2 FEW
11:39 -17.6 °C -18 °C 34198.6 hPa South 1.8 km/h 9 km/h 94% 0 mm WeatherDisplay:10.37 W/m2 FEW
11:44 -17.6 °C -18 °C 34198.6 hPa Calm     94% 0 mm WeatherDisplay:10.37 W/m2 FEW
11:49 -17.6 °C -18 °C 34198.6 hPa SSE 1.3 km/h 9 km/h 94% 0 mm WeatherDisplay:10.37 W/m2 FEW
11:54 -17.6 °C -18 °C 34198.6 hPa Calm     94% 0 mm WeatherDisplay:10.37 W/m2 FEW
11:59 -17.6 °C -18 °C 34188.4 hPa SE 7.6 km/h 23.8 km/h 94% 0 mm WeatherDisplay:10.37 W/m2 FEW
12:04 -17.6 °C -18 °C 34198.6 hPa SE 5.5 km/h 15 km/h 94% 0 mm WeatherDisplay:10.37 W/m2 FEW
12:09 -17.6 °C -18 °C 34188.4 hPa SE 5.6 km/h 17.9 km/h 94% 0 mm WeatherDisplay:10.37 W/m2 FEW
12:14 -17.6 °C -18 °C 34188.4 hPa Calm   9 km/h 94% 0 mm WeatherDisplay:10.37 W/m2 FEW
12:19 -17.6 °C -18 °C 34188.4 hPa ENE 2.6 km/h 15 km/h 94% 0 mm WeatherDisplay:10.37 W/m2 FEW
12:24 -17.6 °C -18 °C 34178.3 hPa ESE 5.6 km/h 9 km/h 94% 0 mm WeatherDisplay:10.37 W/m2 FEW
12:29 -17.6 °C -18 °C 34178.3 hPa ESE 4.2 km/h 23.8 km/h 94% 0 mm WeatherDisplay:10.37 W/m2 FEW
12:34 -17.5 °C -17.9 °C 34178.3 hPa ESE 4.7 km/h 20.9 km/h 94% 0 mm WeatherDisplay:10.37 W/m2 FEW
12:39 -17.5 °C -17.9 °C 34178.3 hPa ESE 3.9 km/h 17.9 km/h 94% 0 mm WeatherDisplay:10.37 W/m2 FEW
12:44 -17.5 °C -17.9 °C 34178.3 hPa East 6.9 km/h 17.9 km/h 94% 0 mm WeatherDisplay:10.37 W/m2 FEW
12:49 -17.5 °C -17.9 °C 34164.7 hPa SE 8.9 km/h 23.8 km/h 94% 0 mm WeatherDisplay:10.37 W/m2 FEW
12:54 -17.5 °C -17.9 °C 34164.7 hPa ESE 6.9 km/h 9 km/h 94% 0 mm WeatherDisplay:10.37 W/m2 FEW
12:59 -17.4 °C -17.9 °C 34164.7 hPa East 3.4 km/h 12.9 km/h 94% 0 mm WeatherDisplay:10.37 W/m2 FEW
13:04 -17.4 °C -17.9 °C 34154.6 hPa SSE 2.1 km/h 15 km/h 94% 7.62 mm WeatherDisplay:10.37 W/m2 RA
13:09 -17.4 °C -17.9 °C 34154.6 hPa ESE 1.3 km/h 17.9 km/h 94% 7.62 mm WeatherDisplay:10.37 W/m2 RA
13:14 -17.4 °C -17.9 °C 34154.6 hPa SE 4.2 km/h 9 km/h 94% 7.62 mm WeatherDisplay:10.37 W/m2 FEW
13:19 -17.5 °C -17.9 °C 34144.4 hPa Calm   6 km/h 94% 12.7 mm WeatherDisplay:10.37 W/m2 RA
13:24 -17.4 °C -17.9 °C 34144.4 hPa ESE 2.6 km/h 6 km/h 94% 12.7 mm WeatherDisplay:10.37 W/m2 RA
13:29 -17.4 °C -17.9 °C 34144.4 hPa SSE 2.3 km/h 12.9 km/h 94% 12.7 mm WeatherDisplay:10.37 W/m2 RA
13:34 -17.4 °C -17.9 °C 34144.4 hPa ESE 2.3 km/h 9 km/h 94% 20.32 mm WeatherDisplay:10.37 W/m2 RA
13:39 -17.4 °C -17.9 °C 34130.9 hPa SE 8.5 km/h 17.9 km/h 94% 20.32 mm WeatherDisplay:10.37 W/m2 RA
13:44 -17.5 °C -17.9 °C 34130.9 hPa SE 3.4 km/h 5.1 km/h 94% 20.32 mm WeatherDisplay:10.37 W/m2 FEW
13:49 -17.5 °C -17.9 °C 34130.9 hPa Calm   15 km/h 94% 20.32 mm WeatherDisplay:10.37 W/m2 FEW
13:54 -17.5 °C -17.9 °C 34130.9 hPa East 0.3 km/h 15 km/h 94% 25.4 mm WeatherDisplay:10.37 W/m2 RA
13:59 -17.4 °C -17.9 °C 34120.7 hPa Calm     94% 25.4 mm WeatherDisplay:10.37 W/m2 RA
14:04 -17.4 °C -17.9 °C 34120.7 hPa SE 7.6 km/h 7.7 km/h 94% 20.32 mm WeatherDisplay:10.37 W/m2 FEW
14:09 -17.5 °C -17.9 °C 34120.7 hPa SE 7.7 km/h 9 km/h 94% 20.32 mm WeatherDisplay:10.37 W/m2 FEW
14:14 -17.5 °C -17.9 °C 34120.7 hPa SSE 3.4 km/h 20.9 km/h 94% 25.4 mm WeatherDisplay:10.37 W/m2 RA
14:19 -17.5 °C -17.9 °C 34120.7 hPa SE 3.1 km/h 17.9 km/h 94% 20.32 mm WeatherDisplay:10.37 W/m2 RA
14:24 -17.5 °C -17.9 °C 34107.2 hPa ESE 3.9 km/h 6 km/h 94% 12.7 mm WeatherDisplay:10.37 W/m2 FEW
14:29 -17.5 °C -17.9 °C 34107.2 hPa SSE 8.5 km/h 9 km/h 94% 12.7 mm WeatherDisplay:10.37 W/m2 FEW
14:34 -17.6 °C -18 °C 34107.2 hPa ESE 9 km/h 17.9 km/h 94% 12.7 mm WeatherDisplay:10.37 W/m2 FEW
14:39 -17.5 °C -17.9 °C 34107.2 hPa ENE 6.9 km/h 26.9 km/h 94% 12.7 mm WeatherDisplay:10.37 W/m2 FEW
14:44 -17.6 °C -18 °C 34107.2 hPa SSE 4.3 km/h 10.3 km/h 94% 12.7 mm WeatherDisplay:10.37 W/m2 FEW
14:49 -17.6 °C -18 °C 34107.2 hPa SE 4.7 km/h 11.9 km/h 94% 12.7 mm WeatherDisplay:10.37 W/m2 FEW
14:54 -17.6 °C -18 °C 34107.2 hPa SE 4.7 km/h 9 km/h 94% 7.62 mm WeatherDisplay:10.37 W/m2 FEW
14:59 -17.6 °C -18 °C 34097 hPa SE 7.2 km/h 18.2 km/h 94% 7.62 mm WeatherDisplay:10.37 W/m2 FEW
15:04 -17.5 °C -17.9 °C 34097 hPa South 3.1 km/h 11.9 km/h 94% 12.7 mm WeatherDisplay:10.37 W/m2 RA
15:09 -17.5 °C -17.9 °C 34097 hPa South 9 km/h 29.8 km/h 94% 12.7 mm WeatherDisplay:10.37 W/m2 RA
15:14 -17.5 °C -17.9 °C 34097 hPa ESE 10.3 km/h 20.9 km/h 94% 7.62 mm WeatherDisplay:10.37 W/m2 FEW
15:19 -17.5 °C -17.9 °C 34086.9 hPa SSE 1.6 km/h 18.2 km/h 94% 7.62 mm WeatherDisplay:10.37 W/m2 FEW
15:24 -17.5 °C -17.9 °C 34086.9 hPa ENE 7.6 km/h 17.9 km/h 94% 7.62 mm WeatherDisplay:10.37 W/m2 FEW
15:29 -17.5 °C -17.9 °C 34086.9 hPa ESE 5 km/h 10.3 km/h 94% 7.62 mm WeatherDisplay:10.37 W/m2 FEW
15:34 -17.5 °C -17.9 °C 34086.9 hPa South 9.7 km/h 20.9 km/h 94% 7.62 mm WeatherDisplay:10.37 W/m2 FEW
15:39 -17.5 °C -17.9 °C 34086.9 hPa Calm   9 km/h 94% 7.62 mm WeatherDisplay:10.37 W/m2 FEW
15:44 -17.5 °C -17.9 °C 34073.3 hPa SE 6.4 km/h 17.9 km/h 94% 7.62 mm WeatherDisplay:10.37 W/m2 FEW
15:49 -17.5 °C -17.9 °C 34073.3 hPa SE 9.3 km/h 17.9 km/h 94% 7.62 mm WeatherDisplay:10.37 W/m2 FEW
15:54 -17.5 °C -17.9 °C 34073.3 hPa ESE 10.1 km/h 23.8 km/h 94% 7.62 mm WeatherDisplay:10.37 W/m2 FEW
15:59 -17.5 °C -17.9 °C 34073.3 hPa SE 10.9 km/h 15 km/h 94% 7.62 mm WeatherDisplay:10.37 W/m2 FEW
16:04 -17.5 °C -17.9 °C 34063.2 hPa ESE 6.3 km/h 20.9 km/h 94% 0 mm WeatherDisplay:10.37 W/m2 FEW
16:09 -17.5 °C -17.9 °C 34063.2 hPa ESE 12.2 km/h 17.9 km/h 94% 0 mm WeatherDisplay:10.37 W/m2 FEW
16:14 -17.5 °C -17.9 °C 34063.2 hPa East 2.6 km/h 9 km/h 94% 0 mm WeatherDisplay:10.37 W/m2 FEW
16:19 -17.5 °C -17.9 °C 34063.2 hPa East 1.6 km/h 9 km/h 94% 0 mm WeatherDisplay:10.37 W/m2 FEW
16:24 -17.5 °C -17.9 °C 34063.2 hPa SE 3.1 km/h 17.9 km/h 94% 0 mm WeatherDisplay:10.37 W/m2 FEW
16:29 -17.5 °C -17.9 °C 34049.6 hPa SE 9.3 km/h 23.8 km/h 94% 0 mm WeatherDisplay:10.37 W/m2 FEW
16:34 -17.5 °C -17.9 °C 34049.6 hPa SE 10.1 km/h 29.8 km/h 94% 0 mm WeatherDisplay:10.37 W/m2 FEW
16:39 -17.5 °C -17.9 °C 34049.6 hPa SE 10.6 km/h 15 km/h 94% 0 mm WeatherDisplay:10.37 W/m2 FEW
16:44 -17.5 °C -17.9 °C 34049.6 hPa East 6 km/h 17.9 km/h 94% 0 mm WeatherDisplay:10.37 W/m2 FEW
16:49 -17.6 °C -18 °C 34049.6 hPa SE 5 km/h 17.9 km/h 94% 0 mm WeatherDisplay:10.37 W/m2 FEW
16:54 -17.5 °C -17.9 °C 34049.6 hPa East 4.3 km/h 11.9 km/h 94% 0 mm WeatherDisplay:10.37 W/m2 FEW
16:59 -17.5 °C -17.9 °C 34049.6 hPa ESE 5 km/h 20.9 km/h 94% 0 mm WeatherDisplay:10.37 W/m2 FEW
17:04 -17.6 °C -18 °C 34039.5 hPa SE 9.7 km/h 17.9 km/h 94% 0 mm WeatherDisplay:10.37 W/m2 FEW
17:09 -17.5 °C -17.9 °C 34039.5 hPa East 2.3 km/h 26.9 km/h 94% 0 mm WeatherDisplay:10.37 W/m2 FEW
17:14 -17.5 °C -17.9 °C 34039.5 hPa SE 3.4 km/h 9 km/h 94% 0 mm WeatherDisplay:10.37 W/m2 FEW
17:19 -17.5 °C -17.9 °C 34039.5 hPa East 11.9 km/h 15 km/h 94% 0 mm WeatherDisplay:10.37 W/m2 FEW
17:24 -17.5 °C -17.9 °C 34039.5 hPa East 8.2 km/h 11.9 km/h 94% 0 mm WeatherDisplay:10.37 W/m2 FEW
17:29 -17.5 °C -17.9 °C 34039.5 hPa ESE 8.5 km/h 29.8 km/h 94% 7.62 mm WeatherDisplay:10.37 W/m2 RA
17:34 -17.5 °C -17.9 °C 34039.5 hPa East 5 km/h 9 km/h 94% 7.62 mm WeatherDisplay:10.37 W/m2 RA
17:39 -17.5 °C -17.9 °C 34039.5 hPa East 14 km/h 15 km/h 94% 7.62 mm WeatherDisplay:10.37 W/m2 FEW
17:44 -17.5 °C -17.9 °C 34029.3 hPa East 8 km/h 17.9 km/h 94% 7.62 mm WeatherDisplay:10.37 W/m2 FEW
17:49 -17.5 °C -17.9 °C 34029.3 hPa ESE 1.3 km/h 9 km/h 94% 7.62 mm WeatherDisplay:10.37 W/m2 FEW
17:54 -17.5 °C -17.9 °C 34029.3 hPa SE 9.7 km/h 15 km/h 94% 7.62 mm WeatherDisplay:10.37 W/m2 FEW
17:59 -17.5 °C -17.9 °C 34029.3 hPa East 13.2 km/h 15.6 km/h 94% 7.62 mm WeatherDisplay:10.37 W/m2 FEW
18:04 -17.5 °C -17.9 °C 34029.3 hPa ESE 3.4 km/h 9 km/h 94% 7.62 mm WeatherDisplay:10.37 W/m2 FEW
18:09 -17.5 °C -17.9 °C 34029.3 hPa ENE 10.3 km/h 23.8 km/h 94% 7.62 mm WeatherDisplay:10.37 W/m2 FEW
18:14 -17.5 °C -17.9 °C 34015.8 hPa SE 11.6 km/h 26.9 km/h 94% 7.62 mm WeatherDisplay:10.37 W/m2 FEW
18:19 -17.4 °C -17.9 °C 34015.8 hPa ENE 4.3 km/h 17.9 km/h 94% 7.62 mm WeatherDisplay:10.37 W/m2 FEW
18:24 -17.5 °C -17.9 °C 34015.8 hPa East 1 km/h 17.9 km/h 94% 7.62 mm WeatherDisplay:10.37 W/m2 FEW
18:29 -17.5 °C -17.9 °C 34015.8 hPa East 2.1 km/h 11.9 km/h 94% 0 mm WeatherDisplay:10.37 W/m2 FEW
18:34 -17.4 °C -17.9 °C 34015.8 hPa ESE 11.4 km/h 20.9 km/h 94% 0 mm WeatherDisplay:10.37 W/m2 FEW
18:39 -17.4 °C -17.9 °C 34015.8 hPa East 9.7 km/h 17.9 km/h 94% 0 mm WeatherDisplay:10.37 W/m2 FEW
18:44 -17.4 °C -17.9 °C 34015.8 hPa ESE 8.5 km/h 23.8 km/h 94% 0 mm WeatherDisplay:10.37 W/m2 FEW
18:49 -17.4 °C -17.9 °C 34005.6 hPa East 10.3 km/h 18.2 km/h 94% 0 mm WeatherDisplay:10.37 W/m2 FEW
18:54 -17.4 °C -17.9 °C 34005.6 hPa East 5 km/h 11.9 km/h 94% 0 mm WeatherDisplay:10.37 W/m2 FEW
18:59 -17.4 °C -17.9 °C 34005.6 hPa SE 7.7 km/h 23.8 km/h 94% 0 mm WeatherDisplay:10.37 W/m2 FEW
19:04 -17.4 °C -17.9 °C 34005.6 hPa East 6.9 km/h 11.9 km/h 94% 0 mm WeatherDisplay:10.37 W/m2 FEW
19:09 -17.4 °C -17.9 °C 34005.6 hPa ESE 1.6 km/h 5.1 km/h 94% 0 mm WeatherDisplay:10.37 W/m2 FEW
19:14 -17.4 °C -17.9 °C 34005.6 hPa East 8 km/h 11.9 km/h 94% 0 mm WeatherDisplay:10.37 W/m2 FEW
19:19 -17.4 °C -17.9 °C 34005.6 hPa East 1.8 km/h 9 km/h 94% 0 mm WeatherDisplay:10.37 W/m2 FEW
19:24 -17.4 °C -17.9 °C 34005.6 hPa East 3.1 km/h 9 km/h 94% 0 mm WeatherDisplay:10.37 W/m2 FEW
19:29 -17.4 °C -17.9 °C 34005.6 hPa East 6.4 km/h 15 km/h 94% 0 mm WeatherDisplay:10.37 W/m2 FEW
19:34 -17.4 °C -17.9 °C 34005.6 hPa South 2.9 km/h 9 km/h 94% 0 mm WeatherDisplay:10.37 W/m2 FEW
19:39 -17.4 °C -17.9 °C 33992.1 hPa NE 2.3 km/h 9 km/h 94% 0 mm WeatherDisplay:10.37 W/m2 FEW
19:44 -17.5 °C -17.9 °C 33992.1 hPa ENE 3.4 km/h 15 km/h 94% 0 mm WeatherDisplay:10.37 W/m2 FEW
19:49 -17.4 °C -17.9 °C 33992.1 hPa ESE 3.9 km/h 15 km/h 94% 0 mm WeatherDisplay:10.37 W/m2 FEW
19:54 -17.5 °C -17.9 °C 33992.1 hPa SE 9.8 km/h 12.9 km/h 94% 0 mm WeatherDisplay:10.37 W/m2 FEW
19:59 -17.5 °C -17.9 °C 33992.1 hPa SE 3.7 km/h 10.3 km/h 94% 0 mm WeatherDisplay:10.37 W/m2 FEW
20:04 -17.4 °C -17.9 °C 33992.1 hPa East 11.1 km/h 20.9 km/h 94% 0 mm WeatherDisplay:10.37 W/m2 FEW
20:09 -17.4 °C -17.9 °C 33992.1 hPa ESE 4.2 km/h 15 km/h 94% 0 mm WeatherDisplay:10.37 W/m2 FEW
20:14 -17.4 °C -17.9 °C 33992.1 hPa ESE 7.2 km/h 18.2 km/h 94% 0 mm WeatherDisplay:10.37 W/m2 FEW
20:19 -17.4 °C -17.9 °C 33992.1 hPa Calm   9 km/h 94% 0 mm WeatherDisplay:10.37 W/m2 FEW
20:24 -17.4 °C -17.9 °C 33981.9 hPa ESE 9 km/h 17.9 km/h 94% 0 mm WeatherDisplay:10.37 W/m2 FEW
20:29 -17.4 °C -17.9 °C 33981.9 hPa ESE 1 km/h 2.6 km/h 94% 0 mm WeatherDisplay:10.37 W/m2 FEW
20:34 -17.4 °C -17.9 °C 33981.9 hPa ESE 12.7 km/h 12.7 km/h 94% 0 mm WeatherDisplay:10.37 W/m2 FEW
20:39 -17.4 °C -17.9 °C 33981.9 hPa ENE 8.2 km/h 9 km/h 94% 0 mm WeatherDisplay:10.37 W/m2 FEW
20:44 -17.4 °C -17.9 °C 33981.9 hPa ESE 3.7 km/h 9 km/h 94% 0 mm WeatherDisplay:10.37 W/m2 FEW
20:49 -17.4 °C -17.9 °C 33981.9 hPa ENE 4.7 km/h 6 km/h 94% 0 mm WeatherDisplay:10.37 W/m2 FEW
20:54 -17.4 °C -17.9 °C 33981.9 hPa East 3.4 km/h 11.9 km/h 94% 0 mm WeatherDisplay:10.37 W/m2 FEW
20:59 -17.4 °C -17.9 °C 33981.9 hPa East 5.5 km/h 7.7 km/h 94% 0 mm WeatherDisplay:10.37 W/m2 FEW
21:04 -17.4 °C -17.9 °C 33981.9 hPa SE 3.4 km/h 9 km/h 94% 0 mm WeatherDisplay:10.37 W/m2 FEW
21:09 -17.4 °C -17.9 °C 33981.9 hPa Calm   3.1 km/h 94% 0 mm WeatherDisplay:10.37 W/m2 FEW
21:14 -17.4 °C -17.9 °C 33981.9 hPa ESE 0.8 km/h 10.3 km/h 94% 0 mm WeatherDisplay:10.37 W/m2 FEW
21:19 -17.4 °C -17.9 °C 33971.7 hPa SE 2.9 km/h 11.9 km/h 94% 0 mm WeatherDisplay:10.37 W/m2 FEW
21:24 -17.4 °C -17.9 °C 33971.7 hPa East 1.6 km/h 7.7 km/h 94% 0 mm WeatherDisplay:10.37 W/m2 FEW
21:29 -17.4 °C -17.9 °C 33971.7 hPa East 2.1 km/h 9 km/h 94% 0 mm WeatherDisplay:10.37 W/m2 FEW
21:34 -17.5 °C -17.9 °C 33971.7 hPa ENE 2.3 km/h 9 km/h 94% 0 mm WeatherDisplay:10.37 W/m2 FEW
21:39 -17.4 °C -17.9 °C 33971.7 hPa ENE 1.8 km/h 20.9 km/h 94% 0 mm WeatherDisplay:10.37 W/m2 FEW
21:44 -17.5 °C -17.9 °C 33971.7 hPa Calm   2.6 km/h 94% 0 mm WeatherDisplay:10.37 W/m2 FEW
21:49 -17.5 °C -17.9 °C 33971.7 hPa East 8 km/h 9 km/h 94% 0 mm WeatherDisplay:10.37 W/m2 FEW
21:54 -17.5 °C -17.9 °C 33971.7 hPa ESE 8.9 km/h 9 km/h 94% 0 mm WeatherDisplay:10.37 W/m2 FEW
21:59 -17.4 °C -17.9 °C 33971.7 hPa ENE 5.1 km/h 9 km/h 94% 0 mm WeatherDisplay:10.37 W/m2 FEW
22:04 -17.5 °C -17.9 °C 33971.7 hPa SE 5 km/h 15 km/h 94% 0 mm WeatherDisplay:10.37 W/m2 FEW
22:09 -17.5 °C -17.9 °C 33971.7 hPa Calm   9 km/h 94% 0 mm WeatherDisplay:10.37 W/m2 FEW
22:14 -17.5 °C -17.9 °C 33971.7 hPa ESE 5.1 km/h 9 km/h 94% 0 mm WeatherDisplay:10.37 W/m2 FEW
22:20 -17.4 °C -17.9 °C 33971.7 hPa NE 0.3 km/h   94% 0 mm WeatherDisplay:10.37 W/m2 FEW
22:25 -17.4 °C -17.9 °C 33971.7 hPa Calm   9 km/h 94% 0 mm WeatherDisplay:10.37 W/m2 FEW
22:30 -17.4 °C -17.9 °C 33971.7 hPa ENE 4.2 km/h 9 km/h 94% 0 mm WeatherDisplay:10.37 W/m2 FEW
22:35 -17.4 °C -17.9 °C 33971.7 hPa East 2.6 km/h 9 km/h 94% 0 mm WeatherDisplay:10.37 W/m2 FEW
22:40 -17.5 °C -17.9 °C 33958.2 hPa ENE 2.9 km/h 11.9 km/h 94% 0 mm WeatherDisplay:10.37 W/m2 FEW
22:45 -17.5 °C -17.9 °C 33958.2 hPa ENE 3.7 km/h 9 km/h 94% 0 mm WeatherDisplay:10.37 W/m2 FEW
22:50 -17.5 °C -17.9 °C 33958.2 hPa Calm     94% 0 mm WeatherDisplay:10.37 W/m2 FEW
22:56 -17.5 °C -17.9 °C 33958.2 hPa ENE 2.1 km/h 9 km/h 94% 0 mm WeatherDisplay:10.37 W/m2 FEW
23:02 -17.5 °C -17.9 °C 33958.2 hPa ENE 1.8 km/h 6 km/h 94% 0 mm WeatherDisplay:10.37 W/m2 FEW
23:07 -17.5 °C -17.9 °C 33958.2 hPa ENE 6.8 km/h 9 km/h 94% 0 mm WeatherDisplay:10.37 W/m2 FEW
23:12 -17.6 °C -18 °C 33958.2 hPa Calm   6 km/h 94% 0 mm WeatherDisplay:10.37 W/m2 FEW
23:17 -17.5 °C -17.9 °C 33958.2 hPa ENE 10.3 km/h 10.3 km/h 94% 0 mm WeatherDisplay:10.37 W/m2 FEW
23:22 -17.6 °C -18 °C 33958.2 hPa SSE 5.5 km/h 10.3 km/h 94% 0 mm WeatherDisplay:10.37 W/m2 FEW
23:27 -17.6 °C -18 °C 33958.2 hPa Calm   9 km/h 94% 0 mm WeatherDisplay:10.37 W/m2 FEW
23:32 -17.6 °C -18 °C 33958.2 hPa Calm   9 km/h 94% 0 mm WeatherDisplay:10.37 W/m2 FEW
23:37 -17.6 °C -18 °C 33958.2 hPa East 1.6 km/h 15 km/h 94% 0 mm WeatherDisplay:10.37 W/m2 FEW
23:42 -17.6 °C -18 °C 33958.2 hPa ENE 2.3 km/h 10.3 km/h 94% 0 mm WeatherDisplay:10.37 W/m2 FEW
23:47 -17.6 °C -18 °C 33958.2 hPa East 6 km/h 9 km/h 94% 0 mm WeatherDisplay:10.37 W/m2 FEW
23:52 -17.6 °C -18 °C 33958.2 hPa East 2.1 km/h   94% 0 mm WeatherDisplay:10.37 W/m2 FEW
23:57 -17.6 °C -18 °C 33958.2 hPa Calm   9 km/h 94% 0 mm WeatherDisplay:10.37 W/m2 FEW
Tuulensuunkaari, Veikkola, Suomi
Compliments of Weather Underground - 2.75 mb